GW2037 Weather Reports


Display with metric or nautical units.
time (UTC)temp
F
wind
direction
speed
MPH
gust
MPH
rain 1hr
in
rain 24hr
in
rain mn
in
humidity
%
barometer
mb
20260510164041 73 237 1.0 3.0 0.00 0.08 0.00 94 1015.8
20260510164030 74 137 0.0 3.0 0.00 0.07 0.00 93 1015.7
20260510163004 72 235 0.0 1.0 0.00 0.09 0.00 95 1015.8
20260510162503 71 235 0.0 2.0 0.00 0.10 0.00 95 1015.8
20260510162004 71 235 0.0 2.0 0.00 0.11 0.00 96 1015.9
20260510161503 71 358 0.0 1.0 0.00 0.11 0.00 98 1016.0
20260510161002 71 3 0.0 1.0 0.00 0.12 0.00 98 1015.9
20260510160502 70 3 1.0 1.0 0.00 0.14 0.00 98 1015.9
20260510160002 71 117 0.0 1.0 0.00 0.16 0.00 98 1015.8
20260510155502 70 117 0.0 1.0 0.00 0.20 0.00 98 1015.8
20260510155004 70 134 0.0 1.0 0.00 0.23 0.00 99 1016.0
20260510154504 70 134 0.0 1.0 0.00 0.26 0.00 99 1015.9
20260510154004 70 226 0.0 1.0 0.00 0.30 0.00 98 1015.9
20260510153503 70 226 0.0 1.0 0.00 0.33 0.00 98 1016.0
20260510153003 70 226 0.0 0.0 0.00 0.37 0.00 98 1016.0
20260510152743 70 226 0.0 1.0 0.00 0.40 0.00 99 1016.1
20260510151959 70 226 0.0 1.0 0.00 0.42 0.00 99 1016.0
20260510151459 70 134 0.0 1.0 0.00 0.44 0.00 99 1016.0
20260510151001 70 125 0.0 1.0 0.00 0.47 0.00 99 1015.9
20260510150458 69 125 0.0 1.0 0.00 0.48 0.00 99 1015.9
20260510145956 69 125 0.0 1.0 0.00 0.49 0.00 99 1015.9
20260510145520 68 180 0.0 0.0 0.00 0.52 0.00 99 1015.9
20260510145508 68 226 0.0 0.0 0.00 0.50 0.00 99 1015.9
20260510144439 68 199 0.0 0.0 0.00 0.53 0.00 99 1015.9
20260510143936 68 199 0.0 0.0 0.00 0.54 0.00 99 1016.1
20260510143727 67 199 0.0 0.0 0.00 0.54 0.00 99 1016.1
20260510142934 67 199 0.0 0.0 0.00 0.56 0.00 99 1016.1
20260510142433 67 199 0.0 0.0 0.00 0.57 0.00 99 1016.0
20260510141931 67 199 0.0 1.0 0.00 0.57 0.00 99 1016.1
20260510141430 67 213 0.0 1.0 0.00 0.58 0.00 99 1016.0
20260510140930 67 213 0.0 1.0 0.00 0.59 0.00 99 1016.0
20260510140431 66 213 0.0 1.0 0.00 0.60 0.00 99 1015.9
20260510140220 66 213 0.0 1.0 0.00 0.60 0.00 99 1015.8
20260510135429 66 213 0.0 1.0 0.00 0.61 0.00 99 1015.8
20260510134931 66 251 0.0 0.0 0.00 0.62 0.00 99 1015.8
20260510134430 66 251 0.0 1.0 0.00 0.64 0.00 99 1015.7
20260510134210 65 251 0.0 1.0 0.00 0.66 0.00 99 1015.7
20260510133430 66 251 0.0 0.0 0.00 0.67 0.00 99 1015.8
20260510132930 65 251 0.0 1.0 0.00 0.69 0.00 99 1015.6
20260510132508 65 251 0.0 1.0 0.00 0.77 0.00 99 1015.6
20260510132454 65 251 0.0 1.0 0.00 0.71 0.00 99 1015.5
20260510131758 65 251 0.0 1.0 0.00 0.86 0.00 99 1015.5
20260510131752 65 251 0.0 1.0 0.00 0.85 0.00 99 1015.6
20260510130428 65 251 0.0 0.0 0.00 0.87 0.00 99 1015.5
20260510125930 65 251 0.0 0.0 0.00 0.87 0.00 99 1015.3
20260510125430 65 251 0.0 0.0 0.00 0.87 0.00 99 1015.3
20260510124929 65 251 0.0 0.0 0.00 0.87 0.00 99 1015.3
20260510124428 65 251 0.0 0.0 0.00 0.87 0.00 99 1015.1
20260510123929 64 251 0.0 0.0 0.00 0.87 0.00 99 1015.1
20260510123429 64 251 0.0 0.0 0.00 0.87 0.00 99 1015.1
20260510122928 64 251 0.0 1.0 0.00 0.87 0.00 99 1015.1
20260510122429 65 251 0.0 1.0 0.00 0.87 0.00 99 1015.1
20260510121928 65 251 0.0 0.0 0.00 0.87 0.00 99 1015.1
20260510121719 65 251 0.0 0.0 0.00 0.87 0.00 99 1014.9
20260510120927 65 214 0.0 1.0 0.00 0.87 0.00 99 1014.7
20260510120427 65 214 0.0 1.0 0.00 0.87 0.00 99 1014.6
20260510115927 64 214 0.0 0.0 0.00 0.87 0.00 99 1014.6
20260510115427 64 214 0.0 0.0 0.00 0.87 0.00 99 1014.5
20260510114928 64 214 0.0 0.0 0.00 0.87 0.00 99 1014.4
20260510114428 64 214 0.0 1.0 0.00 0.87 0.00 99 1014.3
20260510113926 64 214 0.0 1.0 0.00 0.87 0.00 99 1014.2
20260510113427 64 214 0.0 0.0 0.00 0.87 0.00 99 1014.1
20260510112927 64 214 0.0 0.0 0.00 0.87 0.00 99 1014.0
20260510112717 64 214 0.0 0.0 0.00 0.87 0.00 99 1013.9
20260510111926 64 214 0.0 0.0 0.00 0.87 0.00 99 1013.8
20260510111427 64 214 0.0 0.0 0.00 0.87 0.00 99 1013.6
20260510110926 64 214 0.0 0.0 0.00 0.87 0.00 99 1013.5
20260510110716 64 214 0.0 0.0 0.00 0.87 0.00 99 1013.5
20260510105928 64 214 0.0 0.0 0.00 0.87 0.00 99 1013.4
20260510105427 64 214 0.0 0.0 0.00 0.87 0.00 99 1013.4
20260510105211 64 214 0.0 0.0 0.00 0.87 0.00 99 1013.4
20260510104425 64 214 0.0 0.0 0.00 0.87 0.00 99 1013.3
20260510104225 64 214 0.0 0.0 0.00 0.87 0.00 99 1013.2
20260510103426 64 214 0.0 0.0 0.00 0.87 0.00 99 1013.3
20260510102924 64 214 0.0 0.0 0.00 0.87 0.00 99 1013.2
20260510102426 64 214 0.0 0.0 0.00 0.87 0.00 99 1013.2
20260510101926 64 214 0.0 0.0 0.00 0.87 0.00 99 1013.2
20260510101425 64 214 0.0 0.0 0.00 0.87 0.00 99 1013.0
20260510100926 64 214 0.0 0.0 0.00 0.87 0.00 99 1012.9
20260510100424 64 214 0.0 0.0 0.00 0.87 0.00 99 1012.9
20260510095925 64 214 0.0 0.0 0.00 0.87 0.00 99 1012.9
20260510095424 64 214 0.0 0.0 0.00 0.87 0.00 99 1012.8
20260510094924 64 214 0.0 0.0 0.00 0.87 0.00 99 1012.8
20260510094424 64 214 0.0 0.0 0.00 0.87 0.00 99 1012.8
20260510093924 64 214 0.0 0.0 0.00 0.87 0.00 99 1012.7
20260510093425 64 214 0.0 0.0 0.00 0.87 0.00 99 1012.7
20260510092924 64 214 0.0 0.0 0.00 0.87 0.00 99 1012.6
20260510092424 64 214 0.0 0.0 0.00 0.87 0.00 99 1012.7
20260510091925 64 214 0.0 0.0 0.00 0.87 0.00 99 1012.5
20260510091423 64 214 0.0 0.0 0.00 0.87 0.00 99 1012.5
20260510091015 64 214 0.0 0.0 0.00 0.88 0.00 99 1012.4
20260510090954 64 214 0.0 0.0 0.00 0.88 0.00 99 1012.5
20260510085925 64 214 0.0 0.0 0.00 0.88 0.00 99 1012.3
20260510085423 64 214 0.0 0.0 0.00 0.88 0.00 99 1012.3
20260510084925 64 214 0.0 0.0 0.00 0.88 0.00 99 1012.3
20260510084423 63 214 0.0 0.0 0.00 0.88 0.00 99 1012.3
20260510083923 63 214 0.0 0.0 0.00 0.88 0.00 99 1012.3
20260510083422 63 214 0.0 0.0 0.00 0.88 0.00 99 1012.1
20260510082922 63 214 0.0 0.0 0.00 0.88 0.00 99 1012.0
20260510082424 63 214 0.0 1.0 0.00 0.88 0.00 99 1011.8
20260510081924 63 214 0.0 1.0 0.00 0.88 0.00 99 1011.8
20260510081424 63 214 0.0 0.0 0.00 0.88 0.00 99 1012.0
20260510080923 63 214 0.0 0.0 0.00 0.88 0.00 99 1011.8
20260510080422 63 214 0.0 0.0 0.00 0.88 0.00 99 1011.9
20260510075923 63 214 0.0 0.0 0.00 0.88 0.00 99 1011.8
20260510075715 63 214 0.0 0.0 0.00 0.88 0.00 99 1011.9
20260510074921 63 214 0.0 0.0 0.00 0.88 0.00 99 1011.8
20260510074421 63 214 0.0 0.0 0.00 0.88 0.00 99 1011.9
20260510073921 63 214 0.0 0.0 0.00 0.89 0.00 99 1012.1
20260510073421 64 214 0.0 0.0 0.00 0.89 0.00 99 1012.1
20260510072921 64 214 0.0 0.0 0.00 0.90 0.00 99 1012.0
20260510072421 64 214 0.0 0.0 0.00 0.91 0.00 99 1011.9
20260510071922 64 214 0.0 0.0 0.00 0.92 0.00 99 1011.9
20260510071421 64 214 0.0 0.0 0.00 0.96 0.00 99 1012.0
20260510070921 64 214 0.0 0.0 0.00 1.05 0.00 99 1012.0
20260510070421 64 214 0.0 0.0 0.00 1.05 0.00 99 1011.9
20260510065920 64 214 0.0 0.0 0.00 1.05 0.00 99 1012.0
20260510065421 64 214 0.0 1.0 0.00 1.05 0.00 99 1011.9
20260510064920 64 214 0.0 1.0 0.00 1.05 0.00 99 1011.7
20260510064421 64 214 0.0 0.0 0.00 1.05 0.00 99 1011.6
20260510063920 64 214 0.0 0.0 0.00 1.05 0.00 99 1011.5
20260510063420 64 214 0.0 0.0 0.00 1.05 0.00 99 1011.4
20260510062920 64 214 0.0 0.0 0.00 1.05 0.00 99 1011.4
20260510062419 64 214 0.0 0.0 0.00 1.05 0.00 99 1011.3
20260510061919 64 214 0.0 0.0 0.00 1.05 0.00 99 1011.3
20260510061419 64 214 0.0 0.0 0.00 1.05 0.00 99 1011.4
20260510060920 64 214 0.0 0.0 0.00 1.05 0.00 99 1011.4
20260510060420 64 214 0.0 0.0 0.00 1.05 0.00 99 1011.6
20260510055919 64 214 0.0 0.0 0.00 1.05 0.00 99 1011.5
20260510055707 64 214 0.0 1.0 0.00 1.05 0.00 99 1011.6
20260510054919 64 214 0.0 1.0 0.00 1.05 0.00 99 1011.6
20260510054713 64 214 0.0 0.0 0.00 1.05 0.00 99 1011.7
20260510053918 64 214 0.0 0.0 0.00 1.05 0.00 99 1011.6
20260510053708 64 214 0.0 1.0 0.00 1.05 0.00 99 1011.5
20260510052921 64 214 0.0 1.0 0.00 1.05 0.00 99 1011.6
20260510052419 65 214 0.0 0.0 0.00 1.05 0.00 99 1011.7
20260510051918 65 214 0.0 0.0 0.00 1.05 0.00 99 1011.8
20260510051708 65 214 0.0 0.0 0.00 1.05 0.00 99 1012.0
20260510050919 65 214 0.0 0.0 0.00 1.05 0.00 99 1012.0
20260510050418 0 0.0 0.0 0.00 0.00 0.00 1012.1
20260510045847 65 214 0.0 0.0 0.00 1.05 1.05 99 1012.2
20260510045104 65 214 0.0 0.0 0.00 1.05 1.05 99 1012.1
20260510044850 65 214 0.0 0.0 0.00 1.05 1.05 99 1011.9
20260510044102 65 214 0.0 0.0 0.00 1.05 1.05 99 1011.9
20260510043843 65 214 0.0 0.0 0.00 1.05 1.05 99 1012.2
20260510043102 65 214 0.0 0.0 0.00 1.06 1.05 99 1012.3
20260510042603 65 214 0.0 0.0 0.00 1.06 1.05 99 1012.4
20260510042104 65 214 0.0 0.0 0.00 1.06 1.05 99 1012.5
20260510041603 65 214 0.0 1.0 0.00 1.06 1.05 99 1012.7
20260510041103 65 214 0.0 1.0 0.00 1.06 1.05 99 1013.0
20260510040603 65 214 0.0 0.0 0.00 1.06 1.05 99 1013.2
20260510035843 65 214 0.0 1.0 0.00 1.06 1.05 99 1013.3
20260510035345 65 214 0.0 1.0 0.00 1.06 1.05 99 1013.3
20260510034849 65 221 0.0 1.0 0.00 1.06 1.05 99 1013.4
20260510034136 65 221 0.0 0.0 0.00 1.06 1.05 99 1012.9
20260510034126 65 221 0.0 1.0 0.00 1.06 1.05 99 1013.2
20260510033102 65 221 0.0 0.0 0.00 1.06 1.05 99 1012.7
20260510032602 65 221 0.0 0.0 0.00 1.06 1.05 99 1012.6
20260510032103 65 221 0.0 0.0 0.00 1.06 1.05 99 1012.5
20260510031603 65 221 0.0 0.0 0.00 1.06 1.05 99 1012.7
20260510031104 65 221 0.0 0.0 0.00 1.06 1.05 99 1012.7
20260510030605 65 221 0.0 0.0 0.00 1.06 1.05 99 1012.8
20260510025604 65 227 0.0 0.0 0.00 1.06 1.05 99 1012.9
20260510025101 65 227 0.0 0.0 0.00 1.06 1.05 99 1012.9
20260510024604 65 227 0.0 1.0 0.01 1.06 1.05 99 1012.5
20260510024102 65 227 0.0 1.0 0.01 1.06 1.05 99 1012.4
20260510023844 65 227 0.0 1.0 0.01 1.06 1.05 99 1012.6
20260510023101 65 227 0.0 1.0 0.01 1.06 1.05 99 1012.6
20260510022605 65 227 0.0 1.0 0.01 1.06 1.05 99 1012.3
20260510022104 65 227 0.0 0.0 0.01 1.06 1.05 99 1012.0
20260510021603 65 227 0.0 0.0 0.01 1.06 1.05 99 1011.8
20260510021103 65 227 0.0 0.0 0.01 1.06 1.05 99 1011.8
20260510020602 65 227 0.0 1.0 0.01 1.06 1.05 99 1012.0
20260510020103 65 227 0.0 1.0 0.01 1.06 1.05 99 1012.0
20260510015631 65 227 0.0 1.0 0.01 1.05 1.04 99 1012.2
20260510015622 65 227 0.0 1.0 0.01 1.05 1.05 99 1012.2
20260510014603 65 238 0.0 1.0 0.00 1.05 1.04 99 1012.0
20260510014101 65 238 0.0 1.0 0.00 1.05 1.04 99 1012.3
20260510013604 65 238 0.0 0.0 0.00 1.05 1.04 99 1011.8
20260510013102 65 145 0.0 0.0 0.00 1.05 1.04 99 1011.8
20260510012558 65 145 0.0 1.0 0.00 1.05 1.04 99 1011.6
20260510012100 65 145 0.0 1.0 0.00 1.05 1.04 99 1011.6
20260510011557 65 145 0.0 0.0 0.00 1.05 1.04 99 1011.8
20260510011058 65 145 0.0 0.0 0.00 1.05 1.04 99 1011.8
20260510010557 65 145 0.0 0.0 0.00 1.05 1.04 99 1011.9
20260510010052 66 145 0.0 0.0 0.00 1.05 1.04 99 1011.9
20260510005551 66 145 0.0 0.0 0.00 1.05 1.04 99 1011.9
20260510005049 66 145 0.0 0.0 0.00 1.05 1.04 99 1012.0
20260510004550 66 145 0.0 0.0 0.00 1.05 1.04 99 1012.0
20260510004329 66 145 0.0 0.0 0.00 1.05 1.04 99 1012.0
20260510003550 66 145 0.0 0.0 0.00 1.05 1.04 99 1012.1
20260510003049 66 145 0.0 0.0 0.00 1.05 1.04 99 1012.1
20260510002549 66 145 0.0 1.0 0.00 1.06 1.04 99 1012.3
20260510002049 66 145 0.0 1.0 0.00 1.06 1.04 99 1012.2
20260510001836 66 145 0.0 1.0 0.00 1.06 1.04 99 1011.8
20260510001049 66 145 0.0 1.0 0.00 1.06 1.04 99 1011.6
20260510000549 66 145 0.0 1.0 0.00 1.07 1.04 99 1011.5
20260510000048 66 145 0.0 1.0 0.00 1.07 1.04 99 1011.3
20260509235548 66 145 0.0 1.0 0.00 1.08 1.04 99 1011.5
20260509235404 66 145 0.0 0.0 0.00 1.08 1.04 99 1011.5
20260509235107 66 145 0.0 1.0 0.00 1.08 1.04 99 1011.2
20260509234050 66 145 0.0 1.0 0.00 1.08 1.04 99 1011.2
20260509233548 67 145 0.0 1.0 0.00 1.08 1.04 99 1011.3
20260509233327 67 145 0.0 1.0 0.00 1.09 1.04 99 1010.8
20260509232831 67 145 0.0 0.0 0.00 1.09 1.04 99 1010.8
20260509232049 67 145 0.0 0.0 0.00 1.09 1.04 99 1010.9
20260509231548 67 145 0.0 0.0 0.00 1.09 1.04 99 1010.9
20260509231048 67 145 0.0 0.0 0.00 1.09 1.04 99 1011.1
20260509230548 67 145 0.0 0.0 0.01 1.09 1.04 99 1011.2
20260509230048 67 145 0.0 1.0 0.01 1.09 1.04 99 1011.2
20260509225547 67 145 0.0 1.0 0.01 1.09 1.04 99 1011.2
20260509225123 66 145 0.0 1.0 0.01 1.10 1.04 99 1011.3
20260509225110 67 145 0.0 1.0 0.01 1.09 1.04 99 1011.3
20260509224332 67 145 0.0 1.0 0.01 1.10 1.04 99 1011.0
20260509223546 67 216 0.0 0.0 0.01 1.11 1.04 99 1010.8
20260509223046 67 216 0.0 1.0 0.01 1.11 1.04 99 1010.9
20260509222832 66 216 0.0 2.0 0.01 1.12 1.04 99 1010.9
20260509222046 66 312 0.0 2.0 0.01 1.12 1.04 99 1011.1
20260509221830 67 269 0.0 1.0 0.01 1.13 1.04 99 1010.2
20260509221047 67 353 0.0 1.0 0.01 1.13 1.04 99 1010.4
20260509220833 66 290 0.0 1.0 0.00 1.13 1.03 99 1010.4
20260509220047 66 148 0.0 1.0 0.00 1.14 1.03 99 1010.8
20260509215617 67 248 0.0 1.0 0.00 1.16 1.03 99 1011.3
20260509215608 67 152 0.0 1.0 0.00 1.15 1.03 99 1011.1
20260509214545 67 224 0.0 1.0 0.00 1.18 1.03 99 1010.9
20260509214328 67 152 0.0 1.0 0.00 1.19 1.03 99 1010.8
20260509213545 67 152 1.0 1.0 0.00 1.20 1.03 99 1011.0
20260509213046 67 152 0.0 1.0 0.00 1.21 1.03 99 1010.8
20260509212545 66 158 0.0 1.0 0.00 1.22 1.03 99 1011.1
20260509212046 67 125 0.0 1.0 0.00 1.25 1.03 99 1011.2
20260509211545 67 125 0.0 1.0 0.00 1.27 1.03 99 1011.1
20260509211045 67 124 0.0 0.0 0.00 1.29 1.03 99 1011.0
20260509210544 66 124 0.0 0.0 0.00 1.32 1.03 99 1010.8
20260509210045 66 124 0.0 1.0 0.00 1.33 1.03 99 1010.6
20260509205546 66 124 0.0 1.0 0.00 1.34 1.03 99 1010.6
20260509205045 66 128 0.0 1.0 0.00 1.34 1.03 99 1010.3
20260509204826 66 135 0.0 1.0 0.00 1.35 1.03 99 1010.5
20260509204044 66 135 0.0 1.0 0.00 1.36 1.03 99 1010.5
20260509203547 66 168 0.0 1.0 0.00 1.38 1.03 99 1010.7
20260509203044 66 168 0.0 1.0 0.00 1.40 1.03 99 1010.6
20260509202827 66 219 0.0 1.0 0.00 1.42 1.03 99 1010.7
20260509202044 66 127 0.0 1.0 0.00 1.43 1.03 99 1010.7
20260509201824 66 197 0.0 1.0 0.00 1.44 1.03 99 1010.4
20260509201045 66 172 0.0 0.0 0.00 1.45 1.03 99 1010.3
20260509200542 66 172 0.0 2.0 0.00 1.46 1.03 99 1010.1
20260509200043 66 172 1.0 2.0 0.00 1.47 1.03 99 1009.8
20260509195543 66 259 1.0 1.0 0.00 1.48 1.03 99 1010.3
20260509195044 66 155 0.0 0.0 0.00 1.48 1.03 99 1009.9
20260509194542 66 155 0.0 0.0 0.00 1.50 1.03 99 1010.0
20260509194042 66 155 0.0 1.0 0.00 1.54 1.03 99 1009.8
20260509193543 66 155 0.0 1.0 0.00 1.60 1.03 99 1009.7
20260509193043 66 123 0.0 0.0 0.00 1.65 1.03 99 1009.8
20260509192542 66 123 0.0 1.0 0.01 1.78 1.03 99 1009.6
20260509192042 66 123 0.0 1.0 0.01 1.88 1.03 99 1009.8
20260509191542 66 121 0.0 2.0 0.01 1.97 1.03 99 1009.9
20260509191043 66 124 1.0 2.0 0.01 2.01 1.03 99 1009.9
20260509190542 66 354 1.0 2.0 0.01 2.08 1.03 99 1010.5
20260509190042 66 292 0.0 1.0 0.01 2.11 1.03 99 1010.5
20260509185542 66 292 0.0 2.0 0.01 2.10 1.03 99 1010.4
20260509185041 66 292 0.0 2.0 0.01 2.10 1.03 99 1010.4
20260509184542 66 292 2.0 2.0 0.01 2.10 1.03 99 1010.4
20260509184043 66 213 0.0 1.0 0.01 2.10 1.03 99 1009.5
20260509183542 66 282 0.0 1.0 0.01 2.10 1.03 99 1009.6
20260509183042 65 282 0.0 1.0 0.01 2.10 1.03 99 1009.4
20260509182541 65 282 0.0 1.0 0.01 2.10 1.02 99 1010.5
20260509182041 65 282 0.0 1.0 0.01 2.10 1.02 99 1010.7
20260509181825 65 282 0.0 1.0 0.01 2.11 1.02 99 1010.7
20260509181327 65 186 0.0 1.0 0.01 2.12 1.02 99 1010.7
20260509180540 65 285 1.0 3.0 0.02 2.21 1.02 99 1010.7
20260509180041 65 124 0.0 3.0 0.02 2.36 1.02 99 1010.0
20260509175541 65 233 0.0 3.0 0.03 2.37 1.02 99 1009.9
20260509175041 65 235 0.0 3.0 0.03 2.43 1.02 99 1009.4
20260509174541 65 204 1.0 3.0 0.04 2.52 1.02 99 1008.8
20260509174040 65 220 0.0 2.0 0.05 2.55 1.02 99 1008.8
20260509173828 65 274 0.0 5.0 0.05 2.88 1.02 99 1008.6
20260509173041 65 278 1.0 5.0 0.06 3.50 1.02 99 1008.7
20260509172539 65 334 0.0 1.0 0.06 3.98 1.01 99 1009.3
20260509172041 65 52 0.0 3.0 0.07 4.03 1.01 99 1009.9
20260509171539 64 90 0.0 3.0 0.07 4.03 1.01 99 1010.5
20260509171041 64 227 0.0 2.0 0.08 4.03 1.01 99 1011.4
20260509170538 64 274 0.0 2.0 0.09 4.03 1.00 99 1011.8
20260509170326 64 235 0.0 4.0 0.11 4.03 1.00 99 1012.1
20260509165538 64 241 0.0 4.0 0.14 3.92 0.99 99 1012.4
20260509165326 64 202 0.0 2.0 0.17 3.92 0.98 99 1012.1
20260509164539 64 210 0.0 2.0 0.20 3.92 0.98 99 1012.4